This is the latest recevied weather packets stored in our database for station/object DL7MAP-13. If no packets are shown the sender has not sent any weather packets the latest 10 day(s).
| Time | Temp. | Humidity | Pressure | Rain* | Wind** | Luminosity | Snow |
|---|---|---|---|---|---|---|---|
| 1777749187 | 22.22° C | 34% | 1011.3 hPa | - | - | - | - |
| 1777748287 | 22.78° C | 33% | 1010.9 hPa | - | - | - | - |
| 1777747387 | 22.78° C | 32% | 1011 hPa | - | - | - | - |
| 1777746487 | 23.33° C | 31% | 1010.5 hPa | - | - | - | - |
| 1777745587 | 23.89° C | 30% | 1011.1 hPa | - | - | - | - |
| 1777744687 | 24.44° C | 29% | 1010.2 hPa | - | - | - | - |
| 1777743787 | 25° C | 28% | 1010.3 hPa | - | - | - | - |
| 1777742887 | 25.56° C | 27% | 1010.3 hPa | - | - | - | - |
| 1777741987 | 25.56° C | 26% | 1011.2 hPa | - | - | - | - |
| 1777741087 | 26.11° C | 27% | 1011.8 hPa | - | - | - | - |
| 1777740187 | 26.11° C | 26% | 1011.1 hPa | - | - | - | - |
| 1777739287 | 26.11° C | 26% | 1011.7 hPa | - | - | - | - |
| 1777738387 | 26.11° C | 26% | 1011 hPa | - | - | - | - |
| 1777737487 | 26.11° C | 27% | 1011.9 hPa | - | - | - | - |
| 1777736586 | 26.67° C | 26% | 1011.3 hPa | - | - | - | - |
| 1777735687 | 26.11° C | 26% | 1012.9 hPa | - | - | - | - |
| 1777734787 | 26.67° C | 26% | 1012.1 hPa | - | - | - | - |
| 1777733887 | 26.11° C | 27% | 1013 hPa | - | - | - | - |
| 1777732987 | 26.11° C | 28% | 1013.2 hPa | - | - | - | - |
| 1777732087 | 26.11° C | 27% | 1013.2 hPa | - | - | - | - |
| 1777731187 | 26.11° C | 28% | 1014.1 hPa | - | - | - | - |
| 1777730287 | 26.11° C | 27% | 1013.3 hPa | - | - | - | - |
| 1777729387 | 26.11° C | 28% | 1013.9 hPa | - | - | - | - |
| 1777728487 | 25.56° C | 29% | 1013.1 hPa | - | - | - | - |
| 1777727587 | 25.56° C | 30% | 1014 hPa | - | - | - | - |
* Rain since midnight (hover to see other rain measurements)
** Current wind speed in m/s (hover to see current wind gust speed)